Home > Time Zones > World Clock > Weather > Japan > Tokyo > Past weeks

Flag for Japan Weather past 2 weeks in Tokyo, Japan

Now
82 °F

Warm.


Feels Like: 89 °F
Forecast: 80 / 94 °F
Wind: 3 mph from Northwest

Location: Tokyo

Current Time: Aug 21, 2014 at 6:04:35 AM

Latest Report: Aug 21, 2014 at 5:00 AM


Visibility: N/A

Pressure: 29.91 "Hg

Humidity: 77%

Dew point: 74 °F

Location of TokyoLocation

Historic Weather in Tokyo — Graph

°F

Tokyo temperature yesterday

Maximum temperature yesterday: 93 °F (at 2:00 PM)
Minimum temperature yesterday: 83 °F (at 5:00 AM)
Average temperature yesterday: 88 °F

Past Weeks' High & Low Weather Summary

 TemperatureHumidityPressure
High94 °F (Aug 6, 1:00 PM)95% (Aug 10, 5:00 AM)30.00 "Hg (Aug 10, 5:00 AM)
Low72 °F (Aug 12, 11:00 PM)50% (Aug 6, 1:00 PM)29.41 "Hg (Aug 10, 7:00 PM)
Average83 °F74%29.78 "Hg
* Reported Aug 6 4:00 AM — Aug 21 4:00 AM, Tokyo, Weather by CustomWeather, © 2014

Note: Actual official high and low records may vary slightly from our data, if they occured in-between our weather recording intervals... More about our weather records

Advertising

Tokyo weather history for previous 24 hours

 ConditionsComfort  
Time TempWeatherWind HumidityBarometerVisibility
4:00 AM
Aug 21
82 °FWarm.1 mph81%29.90 "HgN/A
3:00 AM83 °FOvercast.3 mph80%29.90 "Hg12 mi
2:00 AM83 °FWarm.3 mph80%29.89 "HgN/A
1:00 AM84 °FWarm.2 mph78%29.90 "HgN/A
12:00 AM85 °FWarm.3 mph73%29.90 "HgN/A
11:00 PM
Aug 20
87 °FWarm.3 mph70%29.90 "HgN/A
10:00 PM87 °FWarm.3 mph70%29.90 "HgN/A
9:00 PM88 °FOvercast.6 mph69%29.90 "Hg12 mi
8:00 PM88 °FHot.3 mph68%29.89 "HgN/A
7:00 PM89 °FHot.5 mph68%29.86 "HgN/A
6:00 PM89 °FPassing clouds.7 mph66%29.85 "Hg12 mi
5:00 PM91 °FHot.7 mph64%29.84 "HgN/A
4:00 PM91 °FHot.10 mph63%29.85 "HgN/A
3:00 PM93 °FPassing clouds.9 mph58%29.85 "Hg12 mi
2:00 PM93 °FExtremely hot.10 mph56%29.86 "HgN/A
1:00 PM92 °FHot.9 mph60%29.88 "HgN/A
12:00 PM92 °FPassing clouds.8 mph63%29.90 "Hg6 mi
11:00 AM93 °FHot.9 mph64%29.91 "HgN/A
10:00 AM92 °FHot.7 mph64%29.93 "HgN/A
9:00 AM88 °FScattered clouds.2 mph71%29.94 "Hg12 mi
8:00 AM87 °FWarm.2 mph73%29.95 "HgN/A
7:00 AM85 °FWarm.1 mph78%29.94 "HgN/A
6:00 AM83 °FScattered clouds.6 mph82%29.93 "Hg12 mi
Weather by CustomWeather, © 2014

See weather overviewHow to use our weather pages